Home > Weather > Portsmouth > Past weeks

Flag for United Kingdom Past Weather in Portsmouth, England, United Kingdom — Yesterday and Last 2 Weeks

Now
63 °F

Broken clouds.


Feels Like: 63 °F
Forecast: 58 / 68 °F
Wind: 8 mph from North

Location: Southampton / Weather Centre

Current Time: Jul 30, 2016 at 12:23:00 PM

Latest Report: Jul 30, 2016 at 11:50 AM


Visibility: N/A

Pressure: 29.95 "Hg

Humidity: 68%

Dew Point: 52 °F

Location of PortsmouthLocation

Past Weather in Portsmouth — Graph

°F

Portsmouth Temperature Yesterday

Maximum temperature yesterday: 70 °F (at 2:50 PM)
Minimum temperature yesterday: 59 °F (at 6:20 AM)
Average temperature yesterday: 64 °F

High & Low Weather Summary for the Past Weeks

 TemperatureHumidityPressure
High84 °F (Jul 19, 2:20 PM)100% (Jul 18, 6:50 AM)30.36 "Hg (Jul 18, 6:50 AM)
Low52 °F (Jul 23, 5:50 AM)42% (Jul 20, 4:20 PM)29.74 "Hg (Jul 20, 6:50 AM)
Average67 °F71%30.07 "Hg
* Reported Jul 15 11:20 AM — Jul 30 11:20 AM, Portsmouth, Weather by CustomWeather, © 2016

Note: Actual official high and low records may vary slightly from our data, if they occured in-between our weather recording intervals... More about our weather records

Advertising

Portsmouth Weather History for the Previous 24 Hours

Scroll right to see more
 ConditionsComfort  
Time TempWeatherWind HumidityBarometerVisibility
11:20 AM
Sat, Jul 30
63 °FBroken clouds.8 mph68%29.95 "HgN/A
10:50 AM63 °FBroken clouds.7 mph73%29.95 "HgN/A
10:20 AM63 °FBroken clouds.6 mph77%29.95 "HgN/A
9:50 AM61 °FBroken clouds.5 mph83%29.95 "HgN/A
9:20 AM61 °FBroken clouds.3 mph83%29.95 "HgN/A
8:50 AM61 °FBroken clouds.2 mph88%29.95 "HgN/A
8:20 AM59 °FBroken clouds.1 mph88%29.92 "HgN/A
7:50 AM59 °FBroken clouds.2 mph88%29.92 "HgN/A
7:20 AM59 °FBroken clouds.2 mph88%29.92 "HgN/A
6:50 AM59 °FBroken clouds.2 mph88%29.92 "HgN/A
6:20 AM57 °FPartly cloudy.1 mph94%29.92 "HgN/A
5:50 AM57 °FPartly cloudy.No wind94%29.92 "HgN/A
10:50 PM
Fri, Jul 29
61 °FPassing clouds.5 mph77%29.92 "HgN/A
10:20 PM61 °FPassing clouds.6 mph83%29.92 "HgN/A
9:50 PM61 °FPassing clouds.5 mph83%29.89 "HgN/A
9:20 PM63 °FPassing clouds.7 mph77%29.89 "HgN/A
8:50 PM63 °FPassing clouds.7 mph77%29.89 "HgN/A
8:20 PM64 °FPassing clouds.8 mph73%29.89 "HgN/A
7:50 PM64 °FScattered clouds.10 mph73%29.89 "HgN/A
7:20 PM64 °FPassing clouds.8 mph73%29.89 "HgN/A
6:50 PM64 °FScattered showers. Scattered clouds.10 mph73%29.89 "HgN/A
6:20 PM64 °FScattered showers. Scattered clouds.8 mph78%29.89 "HgN/A
5:50 PM63 °FScattered showers. Scattered clouds.8 mph83%29.86 "HgN/A
5:20 PM63 °FSprinkles. Scattered clouds.13 mph83%29.86 "HgN/A
4:50 PM66 °FScattered showers. Scattered clouds.12 mph64%29.86 "HgN/A
4:20 PM64 °FScattered showers. Scattered clouds.13 mph73%29.86 "HgN/A
3:50 PM66 °FScattered clouds.14 mph68%29.86 "HgN/A
3:20 PM66 °FScattered clouds.15 mph68%29.86 "HgN/A
2:50 PM70 °FScattered clouds.15 mph64%29.86 "HgN/A
2:20 PM68 °FScattered clouds.15 mph64%29.86 "HgN/A
1:50 PM68 °FScattered clouds.13 mph60%29.86 "HgN/A
1:20 PM68 °FScattered clouds.9 mph64%29.86 "HgN/A
12:50 PM68 °FScattered clouds.10 mph64%29.86 "HgN/A
12:20 PM66 °FBroken clouds.10 mph68%29.86 "HgN/A
Weather by CustomWeather, © 2016

See weather overviewHow to use our weather pages